Back to catalog

QIANFAN-210

AliveCommunicationsPO
NORAD 69809·PAYLOAD·🇨🇳 China

Launched Jul 4, 2026 from Taiyuan Satellite Launch Center

Loading…

Next Passes (next 24 hours)

TLE

FreshSource: Space-Track

Epoch: Sep 14, 2026, 12:30 UTC

1 69809U 26153K   26257.52107492 -.01860364  00000-0 -13055+1 0  9995
2 69809  88.9975 352.1227 0010333 339.9618  20.1155 14.02027253 10215

Track QIANFAN-210 in real time with AllMySat

Download on the App Store